TimeEDT,TemperatureF,Dew PointF,Humidity,Sea Level PressureIn,VisibilityMPH,Wind Direction,Wind SpeedMPH,Gust SpeedMPH,PrecipitationIn,Events,Conditions,WindDirDegrees,DateUTC
12:35 AM,21.2,12.2,68,30.02,10.0,NW,11.5,-,N/A,Snow,Light Snow,320,2013-03-21 04:35:00
12:46 AM,21.2,14.0,74,30.02,7.0,WNW,16.1,-,N/A,Snow,Light Snow,300,2013-03-21 04:46:00
12:49 AM,21.2,15.8,80,30.02,5.0,WNW,13.8,-,N/A,Snow,Light Snow,300,2013-03-21 04:49:00
12:51 AM,19.4,15.8,86,30.02,5.0,WNW,11.5,-,N/A,Snow,Light Snow,300,2013-03-21 04:51:00
12:55 AM,20.1,15.4,82,30.02,5.0,NW,12.7,-,0.00,Snow,Light Snow,310,2013-03-21 04:55:00
12:58 AM,19.4,15.8,86,30.02,9.0,NW,12.7,-,N/A,Snow,Light Snow,310,2013-03-21 04:58:00
1:01 AM,19.4,15.8,86,30.02,10.0,NW,11.5,-,N/A,Snow,Light Snow,310,2013-03-21 05:01:00
1:07 AM,21.2,14.0,74,30.02,10.0,NW,12.7,-,N/A,,Overcast,310,2013-03-21 05:07:00
1:11 AM,21.2,14.0,74,30.02,10.0,NNW,12.7,-,N/A,Snow,Light Snow,330,2013-03-21 05:11:00
1:15 AM,21.2,14.0,74,30.02,6.0,NW,12.7,-,N/A,Snow,Light Snow,320,2013-03-21 05:15:00
1:18 AM,21.2,15.8,80,30.02,4.0,NW,11.5,-,N/A,Snow,Light Snow,320,2013-03-21 05:18:00
1:21 AM,19.4,15.8,86,30.02,4.0,NW,10.4,-,N/A,Snow,Light Snow,320,2013-03-21 05:21:00
1:24 AM,19.4,14.0,80,30.02,4.0,NW,10.4,-,N/A,Snow,Light Snow,320,2013-03-21 05:24:00
1:26 AM,19.4,15.8,86,30.03,5.0,NW,8.1,-,N/A,Snow,Light Snow,310,2013-03-21 05:26:00
1:37 AM,19.4,15.8,86,30.02,5.0,NW,10.4,-,N/A,Snow,Light Snow,310,2013-03-21 05:37:00
1:47 AM,19.4,15.8,86,30.02,6.0,NW,11.5,-,N/A,Snow,Light Snow,310,2013-03-21 05:47:00
1:55 AM,19.8,16.3,87,30.02,6.0,NW,10.4,-,0.00,Snow,Light Snow,310,2013-03-21 05:55:00
2:00 AM,19.4,15.8,86,30.02,5.0,WNW,10.4,-,N/A,Snow,Light Snow,300,2013-03-21 06:00:00
2:12 AM,19.4,17.6,93,30.02,9.0,WNW,8.1,-,N/A,Snow,Light Snow,300,2013-03-21 06:12:00
2:17 AM,19.4,17.6,93,30.01,10.0,WNW,8.1,-,N/A,,Overcast,300,2013-03-21 06:17:00
2:55 AM,18.7,12.0,75,30.01,10.0,NW,10.4,-,0.00,,Scattered Clouds,310,2013-03-21 06:55:00
3:09 AM,19.4,10.4,68,30.01,10.0,NW,11.5,-,N/A,,Mostly Cloudy,310,2013-03-21 07:09:00
3:12 AM,17.6,10.4,73,30.01,10.0,NW,9.2,-,N/A,,Mostly Cloudy,310,2013-03-21 07:12:00
3:27 AM,17.6,10.4,73,30.01,10.0,NW,10.4,-,N/A,,Overcast,320,2013-03-21 07:27:00
3:45 AM,17.6,10.4,73,30.01,10.0,NW,9.2,-,N/A,,Overcast,310,2013-03-21 07:45:00
3:48 AM,17.6,10.4,73,30.01,10.0,NW,10.4,-,N/A,,Overcast,320,2013-03-21 07:48:00
3:52 AM,17.6,10.4,73,30.01,10.0,NW,10.4,-,N/A,,Mostly Cloudy,320,2013-03-21 07:52:00
3:55 AM,18.0,10.9,74,30.01,10.0,NW,10.4,-,N/A,,Mostly Cloudy,310,2013-03-21 07:55:00
4:55 AM,16.7,10.6,77,30.01,10.0,NW,9.2,-,N/A,,Clear,310,2013-03-21 08:55:00
5:55 AM,15.6,10.8,81,30.01,10.0,WNW,8.1,-,N/A,,Clear,300,2013-03-21 09:55:00
6:55 AM,14.7,9.3,79,30.01,10.0,West,8.1,-,N/A,,Clear,280,2013-03-21 10:55:00
7:55 AM,14.0,9.0,80,30.02,10.0,WNW,6.9,-,N/A,,Clear,290,2013-03-21 11:55:00
8:55 AM,16.9,9.9,74,30.03,10.0,WNW,11.5,-,N/A,,Clear,290,2013-03-21 12:55:00
9:55 AM,20.3,12.2,71,30.03,10.0,WNW,11.5,-,N/A,,Clear,290,2013-03-21 13:55:00
10:30 AM,21.2,12.2,68,29.99,10.0,WNW,13.8,-,N/A,,Clear,290,2013-03-21 14:30:00
10:55 AM,22.8,12.2,64,30.04,10.0,West,11.5,-,N/A,,Clear,280,2013-03-21 14:55:00
11:55 AM,26.6,10.6,51,30.05,10.0,WNW,12.7,-,N/A,,Clear,300,2013-03-21 15:55:00
12:55 PM,28.6,9.9,46,30.04,10.0,WNW,11.5,-,N/A,,Clear,290,2013-03-21 16:55:00
1:55 PM,31.1,10.4,42,30.04,10.0,WNW,13.8,-,N/A,,Clear,290,2013-03-21 17:55:00
2:55 PM,32.7,10.4,40,30.02,10.0,WNW,10.4,-,N/A,,Scattered Clouds,290,2013-03-21 18:55:00
3:55 PM,34.0,10.0,37,30.01,10.0,WNW,11.5,-,N/A,,Partly Cloudy,290,2013-03-21 19:55:00
4:55 PM,35.2,11.3,37,30.00,10.0,WNW,13.8,21.9,N/A,,Mostly Cloudy,290,2013-03-21 20:55:00
5:55 PM,34.5,9.7,36,30.00,10.0,WNW,13.8,-,N/A,,Clear,290,2013-03-21 21:55:00
6:55 PM,33.4,9.5,37,30.00,10.0,West,10.4,-,N/A,,Clear,280,2013-03-21 22:55:00
7:55 PM,31.1,12.2,46,30.01,10.0,WNW,9.2,-,N/A,,Clear,300,2013-03-21 23:55:00
8:55 PM,26.6,16.7,66,30.02,10.0,West,5.8,-,N/A,,Clear,280,2013-03-22 00:55:00
9:55 PM,27.7,15.1,59,30.03,10.0,WNW,6.9,-,N/A,,Clear,290,2013-03-22 01:55:00
10:55 PM,27.0,15.8,63,30.04,10.0,Calm,Calm,-,N/A,,Clear,0,2013-03-22 02:55:00
11:55 PM,23.7,17.6,77,30.04,10.0,West,4.6,-,N/A,,Clear,280,2013-03-22 03:55:00